Terminal Aerodrome Forecast
Issued by NWS

Home | Current Version | Previous Version | Text Only | Print | Product List | Glossary On
Versions: 1 2 3 4 5 6 7 8 9 10 11 12 13 14 15 16 17 18 19 20 21 22 23 24 25 26 27 28 29 30 31 32 33 34 35 36 37 38 39 40 41 42 43 44 45 46 47 48 49 50
000
FTUS44 KHGX 222334
TAFSGR
TAF
KSGR 222334Z 2300/2324 12010KT 6SM BR VCTS SCT015CB BKN050
      TEMPO 2300/2301 4SM -TSRA BR BKN015CB
     FM230400 13010KT 5SM -TSRA BR SCT007 OVC015CB
      TEMPO 2305/2307 VRB15G30KT 1SM +TSRA BR BKN007 OVC015CB
     FM230800 20010KT P6SM BKN025 OVC050
     FM231200 22008KT P6SM SCT050 BKN100
     FM231500 23010KT P6SM SKC=

USA.gov is the U.S. government's official web portal to all federal, state and local government web resources and services.